sat.trackr.live / text

‹ back to catalog

QIANFAN-82

NORAD 63168 · 2025-046K

PAYLOAD ACTIVE UNKNOWN

§ Identity

Operator
Country
PRC
Launch date
2025-03-11
Launch site
WSC
Launch vehicle
Mass (kg)
RCS (m²)

External: N2YO · Heavens-Above · Gunter

§ Orbital elements

Epoch: 2026-09-22T22:11:35.363904Z

Period
106.59 min
Inclination
88.9641°
Eccentricity
0.0013651
Mean motion
13.51021127 rev/d
Perigee alt
1,058.3 km
Apogee alt
1,078.7 km
Semi-major
7,446.6 km
B*
1.0886e-4
RAAN
290.4090°
Arg perigee
35.8099°
Mean anomaly
324.3965°
Rev number
8,584

§ Raw data

QIANFAN-821 63168U 25046K   26265.92471486  .00000082  00000+0  10886-3 0  99982 63168  88.9641 290.4090 0013651  35.8099 324.3965 13.51021127 85846

JSON: /api/v1/satellites/63168 · /tle

For live sub-satellite position, see the globe view (requires WebGL).

§ Visibility from observer

Set your observer location to see the next 7 days of passes ≥ 10°. The values pass through the URL so the page stays shareable.

No JS? Fill the form by hand. The geolocation button needs JavaScript.